Wetterdaten: Samstag, 04.10.2014
Datum Zeit Temperatur Luftfeuchte Luftdruck Regen Wind Richtung Richtung Taupunkt Windchill Windben
04.10.2014 00:00 8,9 C 92 % 1024,0 hPa 0,0 l/m 0,0 km/h (0 Bft) S-SO 157 7,7 C 22,8 C 0,0 km/h (0 Bft)
04.10.2014 00:10 8,8 C 92 % 1023,9 hPa 0,0 l/m 0,0 km/h (0 Bft) S-SO 157 7,6 C 22,8 C 0,0 km/h (0 Bft)
04.10.2014 00:20 8,9 C 92 % 1023,9 hPa 0,0 l/m 0,0 km/h (0 Bft) S-SO 157 7,7 C 22,8 C 0,0 km/h (0 Bft)
04.10.2014 00:30 8,7 C 92 % 1023,8 hPa 0,0 l/m 0,0 km/h (0 Bft) S-SO 157 7,5 C 22,8 C 0,0 km/h (0 Bft)
04.10.2014 00:40 8,5 C 92 % 1023,8 hPa 0,0 l/m 0,0 km/h (0 Bft) S-SO 157 7,3 C 22,8 C 0,0 km/h (0 Bft)
04.10.2014 00:50 7,8 C 92 % 1023,6 hPa 0,0 l/m 0,0 km/h (0 Bft) S-SO 157 6,6 C 22,8 C 0,0 km/h (0 Bft)
04.10.2014 01:00 6,8 C 91 % 1023,6 hPa 0,0 l/m 0,0 km/h (0 Bft) S-SO 157 5,4 C 22,8 C 0,0 km/h (0 Bft)
04.10.2014 01:10 6,0 C 91 % 1023,4 hPa 0,0 l/m 0,0 km/h (0 Bft) S-SO 157 4,6 C 22,8 C 0,0 km/h (0 Bft)
04.10.2014 01:20 5,7 C 92 % 1023,4 hPa 0,0 l/m 0,0 km/h (0 Bft) S-SO 157 4,5 C 22,8 C 0,0 km/h (0 Bft)
04.10.2014 01:30 5,2 C 92 % 1023,2 hPa 0,0 l/m 0,0 km/h (0 Bft) S-SO 157 4,0 C 22,8 C 0,0 km/h (0 Bft)
04.10.2014 01:38 5,1 C 92 % 1023,2 hPa 0,0 l/m 0,0 km/h (0 Bft) S-SO 157 3,9 C 22,8 C 0,0 km/h (0 Bft)
04.10.2014 01:40 4,9 C 92 % 1023,2 hPa 0,0 l/m 0,0 km/h (0 Bft) S-SO 157 3,7 C 22,8 C 0,0 km/h (0 Bft)
04.10.2014 01:50 4,4 C 92 % 1023,2 hPa 0,0 l/m 0,0 km/h (0 Bft) S-SO 157 3,2 C 22,8 C 0,0 km/h (0 Bft)
04.10.2014 02:00 4,2 C 92 % 1023,2 hPa 0,0 l/m 0,0 km/h (0 Bft) S-SO 157 3,0 C 22,8 C 0,0 km/h (0 Bft)
04.10.2014 02:10 5,1 C 93 % 1023,2 hPa 0,0 l/m 0,0 km/h (0 Bft) S-SO 157 4,1 C 22,8 C 0,0 km/h (0 Bft)
04.10.2014 02:20 5,1 C 93 % 1023,2 hPa 0,0 l/m 0,0 km/h (0 Bft) S-SO 157 4,1 C 22,8 C 0,0 km/h (0 Bft)
04.10.2014 02:30 5,1 C 93 % 1023,1 hPa 0,0 l/m 0,0 km/h (0 Bft) S-SO 157 4,1 C 22,8 C 0,0 km/h (0 Bft)
04.10.2014 02:40 4,7 C 93 % 1023,1 hPa 0,0 l/m 0,0 km/h (0 Bft) S-SO 157 3,7 C 22,8 C 0,0 km/h (0 Bft)
04.10.2014 02:50 4,2 C 93 % 1022,9 hPa 0,0 l/m 0,0 km/h (0 Bft) S-SO 157 3,2 C 22,8 C 0,0 km/h (0 Bft)
04.10.2014 03:00 3,7 C 93 % 1022,9 hPa 0,0 l/m 0,0 km/h (0 Bft) S-SO 157 2,7 C 22,8 C 0,0 km/h (0 Bft)
04.10.2014 03:10 3,9 C 93 % 1022,7 hPa 0,0 l/m 0,0 km/h (0 Bft) S-SO 157 2,9 C 22,8 C 0,0 km/h (0 Bft)
04.10.2014 03:20 3,9 C 93 % 1022,7 hPa 0,0 l/m 0,0 km/h (0 Bft) S-SO 157 2,9 C 22,8 C 0,0 km/h (0 Bft)
04.10.2014 03:30 4,9 C 94 % 1022,4 hPa 0,0 l/m 0,0 km/h (0 Bft) S-SO 157 4,0 C 22,8 C 0,0 km/h (0 Bft)
04.10.2014 03:40 5,5 C 94 % 1022,4 hPa 0,0 l/m 0,0 km/h (0 Bft) S-SO 157 4,6 C 22,8 C 0,0 km/h (0 Bft)
04.10.2014 03:50 5,6 C 94 % 1022,4 hPa 0,0 l/m 0,0 km/h (0 Bft) S-SO 157 4,7 C 22,8 C 0,0 km/h (0 Bft)
04.10.2014 04:00 5,8 C 94 % 1022,4 hPa 0,0 l/m 0,0 km/h (0 Bft) S-SO 157 4,9 C 22,8 C 0,0 km/h (0 Bft)
04.10.2014 04:10 5,2 C 94 % 1022,2 hPa 0,0 l/m 0,0 km/h (0 Bft) S-SO 157 4,3 C 22,8 C 0,0 km/h (0 Bft)
04.10.2014 04:20 5,0 C 94 % 1022,2 hPa 0,0 l/m 0,0 km/h (0 Bft) S-SO 157 4,1 C 22,8 C 0,0 km/h (0 Bft)
04.10.2014 04:30 5,2 C 94 % 1022,1 hPa 0,0 l/m 0,0 km/h (0 Bft) S-SO 157 4,3 C 22,8 C 0,0 km/h (0 Bft)
04.10.2014 04:38 5,4 C 94 % 1022,1 hPa 0,0 l/m 0,0 km/h (0 Bft) S-SO 157 4,5 C 22,8 C 0,0 km/h (0 Bft)
04.10.2014 04:40 4,4 C 94 % 1021,8 hPa 0,0 l/m 0,0 km/h (0 Bft) S-SO 157 3,5 C 22,8 C 0,0 km/h (0 Bft)
04.10.2014 04:50 4,1 C 94 % 1021,8 hPa 0,0 l/m 0,0 km/h (0 Bft) S-SO 157 3,2 C 22,8 C 0,0 km/h (0 Bft)
04.10.2014 05:00 4,0 C 94 % 1021,7 hPa 0,0 l/m 0,0 km/h (0 Bft) S-SO 157 3,1 C 22,8 C 0,0 km/h (0 Bft)
04.10.2014 05:10 4,2 C 94 % 1021,7 hPa 0,0 l/m 0,0 km/h (0 Bft) S-SO 157 3,3 C 22,8 C 0,0 km/h (0 Bft)
04.10.2014 05:20 4,2 C 94 % 1021,7 hPa 0,0 l/m 0,0 km/h (0 Bft) S-SO 157 3,3 C 22,8 C 0,0 km/h (0 Bft)
04.10.2014 05:30 3,8 C 94 % 1021,6 hPa 0,0 l/m 0,0 km/h (0 Bft) S-SO 157 2,9 C 22,8 C 0,0 km/h (0 Bft)
04.10.2014 05:40 3,0 C 94 % 1021,6 hPa 0,0 l/m 0,0 km/h (0 Bft) S-SO 157 2,1 C 22,8 C 0,0 km/h (0 Bft)
04.10.2014 05:50 2,8 C 95 % 1021,5 hPa 0,0 l/m 0,0 km/h (0 Bft) S-SO 157 2,1 C 22,8 C 0,0 km/h (0 Bft)
04.10.2014 06:00 2,2 C 95 % 1021,5 hPa 0,0 l/m 0,0 km/h (0 Bft) S-SO 157 1,5 C 22,8 C 0,0 km/h (0 Bft)
04.10.2014 06:10 1,8 C 95 % 1021,4 hPa 0,0 l/m 0,0 km/h (0 Bft) S-SO 157 1,1 C 22,8 C 0,0 km/h (0 Bft)
04.10.2014 06:20 1,9 C 95 % 1021,4 hPa 0,0 l/m 0,0 km/h (0 Bft) S-SO 157 1,2 C 22,8 C 0,0 km/h (0 Bft)
04.10.2014 06:30 1,7 C 95 % 1021,2 hPa 0,0 l/m 0,0 km/h (0 Bft) S-SO 157 1,0 C 22,8 C 0,0 km/h (0 Bft)
04.10.2014 06:40 1,8 C 95 % 1021,2 hPa 0,0 l/m 0,0 km/h (0 Bft) S-SO 157 1,1 C 22,8 C 0,0 km/h (0 Bft)
04.10.2014 06:50 2,0 C 95 % 1021,2 hPa 0,0 l/m 0,0 km/h (0 Bft) S-SO 157 1,3 C 22,8 C 0,0 km/h (0 Bft)
04.10.2014 07:00 1,8 C 95 % 1021,2 hPa 0,0 l/m 0,0 km/h (0 Bft) S-SO 157 1,1 C 22,8 C 0,0 km/h (0 Bft)
04.10.2014 07:10 2,5 C 95 % 1021,1 hPa 0,0 l/m 0,0 km/h (0 Bft) S-SO 157 1,8 C 22,8 C 0,0 km/h (0 Bft)
04.10.2014 07:20 4,1 C 94 % 1021,1 hPa 0,0 l/m 0,0 km/h (0 Bft) S-SO 157 3,2 C 22,8 C 0,0 km/h (0 Bft)
04.10.2014 07:30 3,7 C 94 % 1021,1 hPa 0,0 l/m 0,0 km/h (0 Bft) S-SO 157 2,8 C 22,8 C 0,0 km/h (0 Bft)
04.10.2014 07:38 4,1 C 94 % 1021,1 hPa 0,0 l/m 0,0 km/h (0 Bft) S-SO 157 3,2 C 22,8 C 0,0 km/h (0 Bft)
04.10.2014 07:40 4,6 C 95 % 1020,9 hPa 0,0 l/m 0,0 km/h (0 Bft) S-SO 157 3,9 C 22,8 C 0,0 km/h (0 Bft)
04.10.2014 07:50 4,6 C 95 % 1020,9 hPa 0,0 l/m 0,0 km/h (0 Bft) S-SO 157 3,9 C 22,8 C 0,0 km/h (0 Bft)
04.10.2014 08:00 4,4 C 95 % 1020,8 hPa 0,0 l/m 0,0 km/h (0 Bft) S-SO 157 3,7 C 22,8 C 0,0 km/h (0 Bft)
04.10.2014 08:10 4,6 C 95 % 1020,8 hPa 0,0 l/m 0,0 km/h (0 Bft) S-SO 157 3,9 C 22,8 C 0,0 km/h (0 Bft)
04.10.2014 08:20 4,6 C 95 % 1020,8 hPa 0,0 l/m 0,0 km/h (0 Bft) S-SO 157 3,9 C 22,8 C 0,0 km/h (0 Bft)
04.10.2014 08:30 4,9 C 95 % 1020,9 hPa 0,0 l/m 0,0 km/h (0 Bft) S-SO 157 4,2 C 22,8 C 0,0 km/h (0 Bft)
04.10.2014 08:40 4,7 C 95 % 1020,9 hPa 0,0 l/m 0,0 km/h (0 Bft) S-SO 157 4,0 C 22,8 C 0,0 km/h (0 Bft)
04.10.2014 08:50 4,7 C 95 % 1020,9 hPa 0,0 l/m 0,0 km/h (0 Bft) S-SO 157 4,0 C 22,8 C 0,0 km/h (0 Bft)
04.10.2014 09:00 4,6 C 95 % 1020,9 hPa 0,0 l/m 0,0 km/h (0 Bft) S-SO 157 3,9 C 22,8 C 0,0 km/h (0 Bft)
04.10.2014 09:10 4,8 C 95 % 1021,0 hPa 0,0 l/m 0,0 km/h (0 Bft) S-SO 157 4,1 C 22,8 C 0,0 km/h (0 Bft)
04.10.2014 09:20 5,1 C 95 % 1021,0 hPa 0,0 l/m 0,0 km/h (0 Bft) S-SO 157 4,4 C 22,8 C 0,0 km/h (0 Bft)
04.10.2014 09:30 5,4 C 95 % 1021,0 hPa 0,0 l/m 0,0 km/h (0 Bft) S-SO 157 4,7 C 22,8 C 0,0 km/h (0 Bft)
04.10.2014 09:40 5,8 C 95 % 1021,0 hPa 0,0 l/m 0,0 km/h (0 Bft) S-SO 157 5,1 C 22,8 C 0,0 km/h (0 Bft)
04.10.2014 09:50 6,4 C 94 % 1021,0 hPa 0,0 l/m 0,0 km/h (0 Bft) S-SO 157 5,5 C 22,8 C 0,0 km/h (0 Bft)
04.10.2014 10:00 7,1 C 94 % 1021,0 hPa 0,0 l/m 0,0 km/h (0 Bft) S-SO 157 6,2 C 22,8 C 0,0 km/h (0 Bft)
04.10.2014 10:10 7,5 C 94 % 1021,1 hPa 0,0 l/m 0,0 km/h (0 Bft) S-SO 157 6,6 C 22,8 C 0,0 km/h (0 Bft)
04.10.2014 10:20 7,7 C 93 % 1021,1 hPa 0,0 l/m 0,0 km/h (0 Bft) S-SO 157 6,6 C 22,8 C 0,0 km/h (0 Bft)
04.10.2014 10:28 8,9 C 93 % 1021,1 hPa 0,0 l/m 0,0 km/h (0 Bft) S-SO 157 7,8 C 22,8 C 0,0 km/h (0 Bft)
04.10.2014 10:30 8,8 C 92 % 1021,1 hPa 0,0 l/m 0,0 km/h (0 Bft) S-SO 157 7,6 C 22,8 C 0,0 km/h (0 Bft)
04.10.2014 10:40 9,4 C 91 % 1021,1 hPa 0,0 l/m 0,0 km/h (0 Bft) S-SO 157 8,0 C 22,8 C 0,0 km/h (0 Bft)
04.10.2014 10:50 9,4 C 91 % 1021,1 hPa 0,0 l/m 0,0 km/h (0 Bft) S-SO 157 8,0 C 22,8 C 0,0 km/h (0 Bft)
04.10.2014 11:00 9,8 C 90 % 1021,1 hPa 0,0 l/m 0,0 km/h (0 Bft) S-SO 157 8,2 C 22,8 C 0,0 km/h (0 Bft)
04.10.2014 11:10 9,9 C 88 % 1021,1 hPa 0,0 l/m 0,0 km/h (0 Bft) S-SO 157 8,0 C 22,8 C 0,0 km/h (0 Bft)
04.10.2014 11:20 9,9 C 88 % 1021,1 hPa 0,0 l/m 0,0 km/h (0 Bft) S-SO 157 8,0 C 22,8 C 0,0 km/h (0 Bft)
04.10.2014 11:30 11,6 C 86 % 1021,1 hPa 0,0 l/m 0,0 km/h (0 Bft) S-SO 157 9,3 C 22,8 C 0,0 km/h (0 Bft)
04.10.2014 11:40 11,0 C 82 % 1021,1 hPa 0,0 l/m 0,0 km/h (0 Bft) S-SO 157 8,0 C 22,8 C 0,0 km/h (0 Bft)
04.10.2014 11:50 11,2 C 79 % 1021,1 hPa 0,0 l/m 0,0 km/h (0 Bft) S-SO 157 7,7 C 22,8 C 0,0 km/h (0 Bft)
04.10.2014 12:00 14,4 C 78 % 1021,1 hPa 0,0 l/m 0,0 km/h (0 Bft) S-SO 157 10,6 C 22,8 C 0,0 km/h (0 Bft)
04.10.2014 12:10 13,1 C 73 % 1021,1 hPa 0,0 l/m 0,0 km/h (0 Bft) S-SO 157 8,4 C 22,8 C 0,0 km/h (0 Bft)
04.10.2014 12:20 12,9 C 75 % 1021,1 hPa 0,0 l/m 0,0 km/h (0 Bft) S-SO 157 8,6 C 22,8 C 0,0 km/h (0 Bft)
04.10.2014 12:30 13,5 C 70 % 1021,1 hPa 0,0 l/m 0,0 km/h (0 Bft) S-SO 157 8,1 C 22,8 C 0,0 km/h (0 Bft)
04.10.2014 12:40 12,9 C 73 % 1021,1 hPa 0,0 l/m 0,0 km/h (0 Bft) S-SO 157 8,2 C 22,8 C 0,0 km/h (0 Bft)
04.10.2014 12:50 12,8 C 74 % 1021,0 hPa 0,0 l/m 0,0 km/h (0 Bft) S-SO 157 8,3 C 22,8 C 0,0 km/h (0 Bft)
04.10.2014 13:00 13,4 C 74 % 1021,0 hPa 0,0 l/m 0,0 km/h (0 Bft) S-SO 157 8,9 C 22,8 C 0,0 km/h (0 Bft)
04.10.2014 13:10 13,1 C 72 % 1020,9 hPa 0,0 l/m 0,0 km/h (0 Bft) S-SO 157 8,2 C 22,8 C 0,0 km/h (0 Bft)
04.10.2014 13:20 12,6 C 74 % 1020,9 hPa 0,0 l/m 0,0 km/h (0 Bft) S-SO 157 8,1 C 22,8 C 0,0 km/h (0 Bft)
04.10.2014 13:28 13,2 C 74 % 1020,9 hPa 0,0 l/m 0,0 km/h (0 Bft) S-SO 157 8,7 C 22,8 C 0,0 km/h (0 Bft)
04.10.2014 13:30 12,7 C 76 % 1020,9 hPa 0,0 l/m 0,0 km/h (0 Bft) S-SO 157 8,6 C 22,8 C 0,0 km/h (0 Bft)
04.10.2014 13:40 12,7 C 77 % 1020,8 hPa 0,0 l/m 0,0 km/h (0 Bft) S-SO 157 8,8 C 22,8 C 0,0 km/h (0 Bft)
04.10.2014 13:50 13,1 C 76 % 1020,8 hPa 0,0 l/m 0,0 km/h (0 Bft) S-SO 157 9,0 C 22,8 C 0,0 km/h (0 Bft)
04.10.2014 14:00 12,9 C 76 % 1020,7 hPa 0,0 l/m 0,0 km/h (0 Bft) S-SO 157 8,8 C 22,8 C 0,0 km/h (0 Bft)
04.10.2014 14:10 12,6 C 77 % 1020,7 hPa 0,0 l/m 0,0 km/h (0 Bft) S-SO 157 8,7 C 22,8 C 0,0 km/h (0 Bft)
04.10.2014 14:20 12,6 C 77 % 1020,7 hPa 0,0 l/m 0,0 km/h (0 Bft) S-SO 157 8,7 C 22,8 C 0,0 km/h (0 Bft)
04.10.2014 14:30 12,2 C 77 % 1020,3 hPa 0,0 l/m 0,0 km/h (0 Bft) S-SO 157 8,3 C 22,8 C 0,0 km/h (0 Bft)
04.10.2014 14:40 12,3 C 78 % 1020,3 hPa 0,0 l/m 0,0 km/h (0 Bft) S-SO 157 8,6 C 22,8 C 0,0 km/h (0 Bft)
04.10.2014 14:50 12,2 C 77 % 1019,9 hPa 0,0 l/m 0,0 km/h (0 Bft) S-SO 157 8,3 C 22,8 C 0,0 km/h (0 Bft)
04.10.2014 15:00 12,4 C 78 % 1019,9 hPa 0,0 l/m 0,0 km/h (0 Bft) S-SO 157 8,7 C 22,8 C 0,0 km/h (0 Bft)
04.10.2014 15:10 12,7 C 77 % 1019,6 hPa 0,0 l/m 0,0 km/h (0 Bft) S-SO 157 8,8 C 22,8 C 0,0 km/h (0 Bft)
04.10.2014 15:20 12,8 C 76 % 1019,6 hPa 0,0 l/m 0,0 km/h (0 Bft) S-SO 157 8,7 C 22,8 C 0,0 km/h (0 Bft)
04.10.2014 15:30 13,1 C 75 % 1019,8 hPa 0,0 l/m 0,0 km/h (0 Bft) S-SO 157 8,8 C 22,8 C 0,0 km/h (0 Bft)
04.10.2014 15:40 12,9 C 76 % 1019,8 hPa 0,0 l/m 0,0 km/h (0 Bft) S-SO 157 8,8 C 22,8 C 0,0 km/h (0 Bft)
04.10.2014 15:50 12,7 C 77 % 1019,7 hPa 0,0 l/m 0,0 km/h (0 Bft) S-SO 157 8,8 C 22,8 C 0,0 km/h (0 Bft)
04.10.2014 16:00 12,5 C 76 % 1019,7 hPa 0,0 l/m 0,0 km/h (0 Bft) S-SO 157 8,4 C 22,8 C 0,0 km/h (0 Bft)
04.10.2014 16:10 12,8 C 77 % 1019,8 hPa 0,0 l/m 0,0 km/h (0 Bft) S-SO 157 8,9 C 22,8 C 0,0 km/h (0 Bft)
04.10.2014 16:20 12,7 C 77 % 1019,8 hPa 0,0 l/m 0,0 km/h (0 Bft) S-SO 157 8,8 C 22,8 C 0,0 km/h (0 Bft)
04.10.2014 16:28 12,0 C 78 % 1019,9 hPa 0,0 l/m 0,0 km/h (0 Bft) S-SO 157 8,3 C 22,8 C 0,0 km/h (0 Bft)
04.10.2014 16:30 12,4 C 77 % 1019,9 hPa 0,0 l/m 0,0 km/h (0 Bft) S-SO 157 8,5 C 22,8 C 0,0 km/h (0 Bft)
04.10.2014 16:40 11,9 C 79 % 1019,8 hPa 0,0 l/m 0,0 km/h (0 Bft) S-SO 157 8,4 C 22,8 C 0,0 km/h (0 Bft)
04.10.2014 16:50 11,8 C 81 % 1019,8 hPa 0,0 l/m 0,0 km/h (0 Bft) S-SO 157 8,6 C 22,8 C 0,0 km/h (0 Bft)
04.10.2014 17:00 11,8 C 82 % 1019,8 hPa 0,0 l/m 0,0 km/h (0 Bft) S-SO 157 8,8 C 22,8 C 0,0 km/h (0 Bft)
04.10.2014 17:10 11,6 C 82 % 1019,8 hPa 0,0 l/m 0,0 km/h (0 Bft) S-SO 157 8,6 C 22,8 C 0,0 km/h (0 Bft)
04.10.2014 17:20 11,6 C 82 % 1019,8 hPa 0,0 l/m 0,0 km/h (0 Bft) S-SO 157 8,6 C 22,8 C 0,0 km/h (0 Bft)
04.10.2014 17:30 11,4 C 83 % 1019,7 hPa 0,0 l/m 0,0 km/h (0 Bft) S-SO 157 8,6 C 22,8 C 0,0 km/h (0 Bft)
04.10.2014 17:40 11,5 C 83 % 1019,7 hPa 0,0 l/m 0,0 km/h (0 Bft) S-SO 157 8,7 C 22,8 C 0,0 km/h (0 Bft)
04.10.2014 17:50 11,3 C 84 % 1019,6 hPa 0,0 l/m 0,0 km/h (0 Bft) S-SO 157 8,7 C 22,8 C 0,0 km/h (0 Bft)
04.10.2014 18:00 11,2 C 85 % 1019,6 hPa 0,0 l/m 0,0 km/h (0 Bft) S-SO 157 8,8 C 22,8 C 0,0 km/h (0 Bft)
04.10.2014 18:10 10,9 C 86 % 1019,6 hPa 0,0 l/m 0,0 km/h (0 Bft) S-SO 157 8,7 C 22,8 C 0,0 km/h (0 Bft)
04.10.2014 18:20 11,0 C 86 % 1019,6 hPa 0,0 l/m 0,0 km/h (0 Bft) S-SO 157 8,7 C 22,8 C 0,0 km/h (0 Bft)
04.10.2014 18:30 10,9 C 87 % 1019,4 hPa 0,0 l/m 0,0 km/h (0 Bft) S-SO 157 8,8 C 22,8 C 0,0 km/h (0 Bft)
04.10.2014 18:40 10,7 C 87 % 1019,4 hPa 0,0 l/m 0,0 km/h (0 Bft) S-SO 157 8,6 C 22,8 C 0,0 km/h (0 Bft)
04.10.2014 18:50 10,5 C 88 % 1019,4 hPa 0,0 l/m 0,0 km/h (0 Bft) S-SO 157 8,6 C 22,8 C 0,0 km/h (0 Bft)
04.10.2014 19:00 10,3 C 88 % 1019,4 hPa 0,0 l/m 0,0 km/h (0 Bft) S-SO 157 8,4 C 22,8 C 0,0 km/h (0 Bft)
04.10.2014 19:10 10,2 C 88 % 1019,4 hPa 0,0 l/m 0,0 km/h (0 Bft) S-SO 157 8,3 C 22,8 C 0,0 km/h (0 Bft)
04.10.2014 19:20 10,1 C 89 % 1019,4 hPa 0,0 l/m 0,0 km/h (0 Bft) S-SO 157 8,4 C 22,8 C 0,0 km/h (0 Bft)
04.10.2014 19:28 10,0 C 89 % 1019,6 hPa 0,0 l/m 0,0 km/h (0 Bft) S-SO 157 8,3 C 22,8 C 0,0 km/h (0 Bft)
04.10.2014 19:30 9,9 C 90 % 1019,6 hPa 0,0 l/m 0,0 km/h (0 Bft) S-SO 157 8,3 C 22,8 C 0,0 km/h (0 Bft)
04.10.2014 19:40 9,9 C 90 % 1019,4 hPa 0,0 l/m 0,0 km/h (0 Bft) S-SO 157 8,3 C 22,8 C 0,0 km/h (0 Bft)
04.10.2014 19:50 9,8 C 90 % 1019,4 hPa 0,0 l/m 0,0 km/h (0 Bft) S-SO 157 8,2 C 22,8 C 0,0 km/h (0 Bft)
04.10.2014 20:00 9,8 C 91 % 1019,2 hPa 0,0 l/m 0,0 km/h (0 Bft) S-SO 157 8,4 C 22,8 C 0,0 km/h (0 Bft)
04.10.2014 20:10 9,7 C 91 % 1019,2 hPa 0,0 l/m 0,0 km/h (0 Bft) S-SO 157 8,3 C 22,8 C 0,0 km/h (0 Bft)
04.10.2014 20:20 9,7 C 91 % 1019,2 hPa 0,0 l/m 0,0 km/h (0 Bft) S-SO 157 8,3 C 22,8 C 0,0 km/h (0 Bft)
04.10.2014 20:30 9,7 C 91 % 1019,4 hPa 0,0 l/m 0,0 km/h (0 Bft) S-SO 157 8,3 C 22,8 C 0,0 km/h (0 Bft)
04.10.2014 20:40 9,6 C 91 % 1019,4 hPa 0,0 l/m 0,0 km/h (0 Bft) S-SO 157 8,2 C 22,8 C 0,0 km/h (0 Bft)
04.10.2014 20:50 9,5 C 92 % 1019,3 hPa 0,0 l/m 0,0 km/h (0 Bft) S-SO 157 8,3 C 22,8 C 0,0 km/h (0 Bft)
04.10.2014 21:00 9,4 C 92 % 1019,3 hPa 0,0 l/m 0,0 km/h (0 Bft) S-SO 157 8,2 C 22,8 C 0,0 km/h (0 Bft)
04.10.2014 21:10 9,4 C 92 % 1019,5 hPa 0,0 l/m 0,0 km/h (0 Bft) S-SO 157 8,2 C 22,8 C 0,0 km/h (0 Bft)
04.10.2014 21:20 9,4 C 92 % 1019,5 hPa 0,0 l/m 0,0 km/h (0 Bft) S-SO 157 8,2 C 22,8 C 0,0 km/h (0 Bft)
04.10.2014 21:30 9,3 C 92 % 1019,5 hPa 0,0 l/m 0,0 km/h (0 Bft) S-SO 157 8,1 C 22,8 C 0,0 km/h (0 Bft)
04.10.2014 21:40 9,4 C 92 % 1019,5 hPa 0,0 l/m 0,0 km/h (0 Bft) S-SO 157 8,2 C 22,8 C 0,0 km/h (0 Bft)
04.10.2014 21:50 9,3 C 92 % 1019,6 hPa 0,0 l/m 0,0 km/h (0 Bft) S-SO 157 8,1 C 22,8 C 0,0 km/h (0 Bft)
04.10.2014 22:00 9,3 C 92 % 1019,6 hPa 0,0 l/m 0,0 km/h (0 Bft) S-SO 157 8,1 C 22,8 C 0,0 km/h (0 Bft)
04.10.2014 22:10 9,3 C 92 % 1019,6 hPa 0,0 l/m 0,0 km/h (0 Bft) S-SO 157 8,1 C 22,8 C 0,0 km/h (0 Bft)
04.10.2014 22:20 9,2 C 92 % 1019,6 hPa 0,0 l/m 0,0 km/h (0 Bft) S-SO 157 8,0 C 22,8 C 0,0 km/h (0 Bft)
04.10.2014 22:28 9,2 C 92 % 1019,4 hPa 0,0 l/m 0,0 km/h (0 Bft) S-SO 157 8,0 C 22,8 C 0,0 km/h (0 Bft)
04.10.2014 22:30 9,2 C 92 % 1019,4 hPa 0,0 l/m 0,0 km/h (0 Bft) S-SO 157 8,0 C 22,8 C 0,0 km/h (0 Bft)
04.10.2014 22:40 9,2 C 93 % 1019,5 hPa 0,0 l/m 0,0 km/h (0 Bft) S-SO 157 8,1 C 22,8 C 0,0 km/h (0 Bft)
04.10.2014 22:50 9,2 C 93 % 1019,5 hPa 0,0 l/m 0,0 km/h (0 Bft) S-SO 157 8,1 C 22,8 C 0,0 km/h (0 Bft)
04.10.2014 23:00 9,2 C 93 % 1019,6 hPa 0,0 l/m 0,0 km/h (0 Bft) S-SO 157 8,1 C 22,8 C 0,0 km/h (0 Bft)
04.10.2014 23:10 9,2 C 93 % 1019,6 hPa 0,0 l/m 0,0 km/h (0 Bft) S-SO 157 8,1 C 22,8 C 0,0 km/h (0 Bft)
04.10.2014 23:20 9,2 C 93 % 1019,6 hPa 0,0 l/m 0,0 km/h (0 Bft) S-SO 157 8,1 C 22,8 C 0,0 km/h (0 Bft)
04.10.2014 23:30 9,2 C 93 % 1019,4 hPa 0,0 l/m 0,0 km/h (0 Bft) S-SO 157 8,1 C 22,8 C 0,0 km/h (0 Bft)
04.10.2014 23:40 9,0 C 93 % 1019,4 hPa 0,0 l/m 0,0 km/h (0 Bft) S-SO 157 7,9 C 22,8 C 0,0 km/h (0 Bft)
04.10.2014 23:50 8,9 C 93 % 1019,4 hPa 0,0 l/m 0,0 km/h (0 Bft) S-SO 157 7,8 C 22,8 C 0,0 km/h (0 Bft)
_ Min-Zeit 06:30 12:30 20:20 - 23:50 - - 06:30 23:50 23:50
Minimum _ 1,7 C 70 % 1019,2 hPa - 0,0 km/h (0 Bft) - - 1,0 C 22,8 C 0,0 km/h (0 Bft)
_ Max-Zeit 12:00 09:40 00:00 23:50 23:50 - - 12:00 23:50 23:50
Maximum _ 14,4 C 95 % 1024,0 hPa 0,0 l/m 0,0 km/h
S-SO (0 Bft)
- - 10,6 C 22,8 C 0,0 km/h
S-SO (0 Bft)
Durchschnitt _ 8,3 C 88 % 1020,9 hPa #0,0 l/m 0,0 km/h (0 Bft) - - - 6,5 C 22,8 C 0,0 km/h (0 Bft)